Regional Weather Roundup
Issued by NWS

Home | Current Version | Previous Version | Text Only | Print | Product List | Glossary Off
Versions: 1 2 3 4 5 6 7 8 9 10 11 12 13 14 15 16 17 18 19 20 21 22 23 24 25 26 27 28 29 30 31 32 33 34 35 36 37 38 39 40 41 42 43 44 45 46 47 48 49 50

000
ASUS43 KLSX 172007
RWRMO

WEATHER SUMMARY FOR MISSOURI
NATIONAL WEATHER SERVICE SPRINGFIELD MO
300 PM CDT WED SEP 17 2014

NOTE: "FAIR" INDICATES FEW OR NO CLOUDS BELOW 12,000 FEET WITH NO
       SIGNIFICANT WEATHER AND/OR OBSTRUCTIONS TO VISIBILITY.
       CURRENT SKY AND/OR WEATHER CONDITIONS ARE NOT AVAILABLE FOR
       CHILLICOTHE AND FARMINGTON.

MOZ001>031-035>038-043-044-053-054-172100-
...NORTHERN AND WESTERN MISSOURI...

CITY           SKY/WX    TMP DP  RH WIND       PRES   REMARKS
KANSAS CTY INT CLOUDY    72  67  84 E6        29.92F
KANSAS C DTWN  CLOUDY    73  67  81 E7        29.90F
LEE`S SUMMIT   CLOUDY    72  67  84 SE3       29.92F
ST JOSEPH      PTSUNNY   77  67  71 SE5       29.90F
CHILLICOTHE      N/A     76  65  68 VRB5      29.92F
KIRKSVILLE     PTSUNNY   71  61  70 E5        29.95F

$$
MOZ066>068-077>081-088>096-101>105-172100-
...SOUTHWEST MISSOURI...

CITY           SKY/WX    TMP DP  RH WIND       PRES   REMARKS
SPRINGFIELD    PTSUNNY   68  65  90 S12       29.93F
JOPLIN         MOSUNNY   88  73  61 SW14G21   29.87F HX  95

$$
MOZ032>034-039>042-045>050-055>058-069>072-172100-
...CENTRAL MISSOURI...

CITY           SKY/WX    TMP DP  RH WIND       PRES   REMARKS
COLUMBIA       CLOUDY    67  63  87 E6        29.94S
JEFFERSON CITY CLOUDY    69  64  84 NE6       29.92S
ROLLA          CLOUDY    66  61  84 SW8       29.92F
SEDALIA        CLOUDY    72  66  81 CALM      29.93R
WHITEMAN AFB   CLOUDY    70  66  88 SE2       29.92S
OSAGE BEACH    CLOUDY    72  64  78 W5        29.92F

$$
MOZ051-052-059>065-172100-
...EAST CENTRAL MISSOURI...

CITY           SKY/WX    TMP DP  RH WIND       PRES   REMARKS
ST LOUIS INTL  PTSUNNY   66  57  72 E8        29.97F
SPIRIT OF STL  CLOUDY    68  59  73 VRB6      29.94F
ST CHARLES     CLOUDY    62  57  83 E9        29.96F

$$
MOZ072>076-082>087-097>100-106>115-172100-
...SOUTH CENTRAL AND SOUTHEAST MISSOURI...

CITY           SKY/WX    TMP DP  RH WIND       PRES   REMARKS
CAPE GIRARDEAU CLOUDY    65  58  78 SE5       29.97F
FARMINGTON     CLOUDY    57  55  94 E5        29.99S
POPLAR BLUFF   CLOUDY    61  56  83 CALM      29.97R
WEST PLAINS    CLOUDY    63  60  90 SW10      29.95F

$$


USA.gov is the U.S. government's official web portal to all federal, state and local government web resources and services.